This is the latest recevied weather packets stored in our database for station/object KD7AWQ. If no packets are shown the sender has not sent any weather packets the latest 10 day(s).
| Time | Temp. | Humidity | Pressure | Rain* | Wind** | Luminosity | Snow |
|---|---|---|---|---|---|---|---|
| 1778021423 | 18.89° C | 39% | 1178.8 hPa | 0 mm | - | 163 W/m² | - |
| 1778021120 | 18.89° C | 37% | 1178.8 hPa | 0 mm | - | 789 W/m² | - |
| 1778020817 | 18.89° C | 37% | 1179 hPa | 0 mm | - | 811 W/m² | - |
| 1778020514 | 18.33° C | 40% | 1179.3 hPa | 0 mm | - | 263 W/m² | - |
| 1778020210 | 18.33° C | 39% | 1179.3 hPa | 0 mm | - | 170 W/m² | - |
| 1778019907 | 18.33° C | 40% | 1179 hPa | 0 mm | - | 171 W/m² | - |
| 1778019602 | 17.78° C | 42% | 1179.3 hPa | 0 mm | - | 197 W/m² | - |
| 1778019300 | 18.33° C | 43% | 1179.4 hPa | 0 mm | - | 247 W/m² | - |
| 1778018997 | 19.44° C | 42% | 1179.7 hPa | 0 mm | - | 327 W/m² | - |
| 1778018694 | 19.44° C | 42% | 1179.2 hPa | 0 mm | - | 1007 W/m² | - |
| 1778018391 | 18.89° C | 44% | 1179.6 hPa | 0 mm | - | 835 W/m² | - |
| 1778018090 | 18.89° C | 42% | 1179.3 hPa | 0 mm | - | 959 W/m² | - |
| 1778017787 | 18.33° C | 42% | 1179.4 hPa | 0 mm | - | 1062 W/m² | - |
| 1778017485 | 17.78° C | 43% | 1179.8 hPa | 0 mm | - | 246 W/m² | - |
| 1778017182 | 17.78° C | 45% | 1179.6 hPa | 0 mm | - | 157 W/m² | - |
| 1778016880 | 18.33° C | 45% | 1179.3 hPa | 0 mm | - | 98 W/m² | - |
| 1778016576 | 18.89° C | 40% | 1179.6 hPa | 0 mm | - | 122 W/m² | - |
| 1778016272 | 20° C | 39% | 1179.3 hPa | 0 mm | - | 285 W/m² | - |
| 1778015969 | 19.44° C | 36% | 1179.6 hPa | 0 mm | - | 1129 W/m² | - |
| 1778015666 | 19.44° C | 37% | 1179.7 hPa | 0 mm | - | 1138 W/m² | - |
| 1778015363 | 20° C | 36% | 1180 hPa | 0 mm | - | 313 W/m² | - |
| 1778015063 | 20° C | 39% | 1180.2 hPa | 0 mm | - | 1142 W/m² | - |
| 1778014756 | 18.89° C | 42% | 1180.2 hPa | 0 mm | - | 1093 W/m² | - |
| 1778014455 | 17.78° C | 46% | 1180.4 hPa | 0 mm | - | 1057 W/m² | - |
| 1778014152 | 18.33° C | 44% | 1180.1 hPa | 0 mm | - | 244 W/m² | - |
* Rain latest hour (hover to see other rain measurements)
** Current wind speed in m/s (hover to see current wind gust speed)